Port Angeles, WA

8:41 AM PDT on June 27, 2017 (GMT -0700)
Fairchild International

Weather History for KCLM - March, 2014

Change the Weather History Date:

Thursday, March 20, 2014

  Actual Average Record
Temperature  
Mean Temperature 42 °F -  
Max Temperature 48 °F 52 °F 63 °F (1979)
Min Temperature 37 °F 37 °F 28 °F (1955)
Degree Days  
Heating Degree Days 22    
Moisture  
Dew Point 32 °F    
Average Humidity 69    
Maximum Humidity 82    
Minimum Humidity 54    
Precipitation  
Precipitation 0.00 in - - ()
Sea Level Pressure  
Sea Level Pressure 30.31 in    
Wind  
Wind Speed 11 mph (West)    
Max Wind Speed 15 mph    
Max Gust Speed 25 mph    
Visibility 10 miles    
Events      
Averages and records for this station are not official NWS values.
T = Trace of Precipitation, MM = Missing Value Source: NWS Daily Summary

Daily Weather History Graph

Daily Weather History Graph

Search for Another Location

Airport or City:

Trip Planner

Search our weather history database for the weather conditions in past years. The results will help you decide how hot, cold, wet, or windy it might be!

Date:

Astronomy

Mar. 20, 2014 Rise Set
Actual Time 7:16 AM PDT 7:26 PM PDT
Civil Twilight 6:45 AM PDT 7:58 PM PDT
Nautical Twilight 6:09 AM PDT 8:34 PM PDT
Astronomical Twilight 5:31 AM PDT 9:12 PM PDT
Moon No Moon Rise 9:08 AM PDT (3/20)
Length of Visible Light 13h 12m
Length of Day
12h 10m
Waning Gibbous, 83% of the Moon is Illuminated
Mar 20
Waning Gibbous
Mar 23
Last Quarter
Mar 30
New
Apr 7
First Quarter
Apr 15
Full

Hourly Weather History & Observations

Time (PDT) Temp. Windchill Dew Point Humidity Pressure Visibility Wind Dir Wind Speed Gust Speed Precip Events Conditions
12:53 AM 39.0 °F 31.8 °F 30.9 °F 73% 30.22 in 10.0 mi WSW 11.5 mph - N/A   Clear
1:53 AM 37.9 °F 30.5 °F 30.0 °F 73% 30.23 in 10.0 mi WSW 11.5 mph - N/A   Clear
2:53 AM 37.0 °F 30.4 °F 30.0 °F 76% 30.24 in 10.0 mi West 9.2 mph - N/A   Clear
3:53 AM 37.9 °F 30.5 °F 30.9 °F 76% 30.24 in 10.0 mi WSW 11.5 mph - N/A   Clear
4:53 AM 39.0 °F 32.3 °F 30.9 °F 73% 30.25 in 10.0 mi West 10.4 mph - N/A   Mostly Cloudy
5:53 AM 39.0 °F 32.3 °F 30.9 °F 73% 30.26 in 10.0 mi WSW 10.4 mph - N/A   Scattered Clouds
6:53 AM 37.9 °F 30.9 °F 30.9 °F 76% 30.28 in 10.0 mi West 10.4 mph - N/A   Scattered Clouds
7:53 AM 37.9 °F 32.7 °F 32.0 °F 79% 30.29 in 10.0 mi West 6.9 mph - N/A   Mostly Cloudy
8:53 AM 41.0 °F 34.7 °F 32.0 °F 70% 30.30 in 10.0 mi WSW 10.4 mph - N/A   Clear
9:53 AM 45.0 °F 38.2 °F 30.9 °F 58% 30.32 in 10.0 mi West 15.0 mph 19.6 mph N/A   Clear
10:53 AM 46.9 °F - 30.9 °F 54% 30.33 in 10.0 mi West 13.8 mph - N/A   Clear
11:53 AM 46.9 °F - 33.1 °F 59% 30.33 in 10.0 mi NW 11.5 mph 19.6 mph N/A   Scattered Clouds
12:53 PM 46.9 °F - 34.0 °F 61% 30.34 in 10.0 mi WNW 13.8 mph 21.9 mph N/A   Partly Cloudy
1:53 PM 46.9 °F - 35.1 °F 63% 30.34 in 10.0 mi NW 15.0 mph 25.3 mph N/A   Clear
2:53 PM 46.0 °F 39.9 °F 34.0 °F 63% 30.34 in 10.0 mi WNW 13.8 mph - N/A   Mostly Cloudy
3:53 PM 48.0 °F - 34.0 °F 58% 30.34 in 10.0 mi WNW 15.0 mph - N/A   Clear
4:53 PM 46.9 °F - 34.0 °F 61% 30.35 in 10.0 mi WNW 12.7 mph - N/A   Clear
5:53 PM 46.0 °F 40.2 °F 33.1 °F 61% 30.34 in 10.0 mi WNW 12.7 mph - N/A   Clear
6:53 PM 43.0 °F 36.8 °F 34.0 °F 71% 30.35 in 10.0 mi NW 11.5 mph - N/A   Partly Cloudy
7:53 PM 42.1 °F 36.6 °F 34.0 °F 73% 30.36 in 10.0 mi WNW 9.2 mph - N/A   Partly Cloudy
8:53 PM 39.0 °F 34.8 °F 33.1 °F 79% 30.37 in 10.0 mi WSW 5.8 mph - N/A   Clear
9:53 PM 39.0 °F 31.8 °F 34.0 °F 82% 30.37 in 10.0 mi WSW 11.5 mph - N/A   Clear
10:53 PM 39.0 °F 33.4 °F 30.9 °F 73% 30.38 in 10.0 mi West 8.1 mph - N/A   Clear
11:53 PM 37.9 °F 30.9 °F 30.9 °F 76% 30.38 in 10.0 mi West 10.4 mph - N/A   Clear